Theta_e
317 316 315 315 315 317 317 316 314 314 313 313 313 313 313 313 313 312 311 311 312 312 311 310 310 310 311 309 309 311 310 310 310 309 309 309 307 308 309 307 308 310
316 316 317 316 316 317 318 317 314 314 313 313 313 311 311 312 312 311 311 312 311 310 309 309 309 309 309 308 308 309 308 308 309 311 309 308 307 307 307 306 307 307
317 316 316 315 316 317 317 316 315 313 314 313 312 312 313 311 310 309 310 311 310 309 308 308 308 308 307 307 307 308 308 307 307 306 308 306 305 307 305 306 306 306
317 317 316 316 317 317 317 316 313 313 313 313 312 312 313 312 310 310 313 314 308 307 306 307 307 306 306 306 306 306 305 306 305 306 308 306 307 306 305 306 307 306
317 317 316 316 316 317 316 315 314 314 312 312 310 310 312 310 309 309 307 306 307 306 306 306 305 305 305 305 306 306 307 305 305 305 306 305 304 306 306 306 305 305
318 318 317 318 318 318 316 315 315 314 311 310 311 311 309 309 309 308 308 307 307 307 306 305 305 305 305 305 305 305 305 307 304 304 306 304 303 305 307 305 305 305
318 317 316 317 317 317 316 315 315 313 312 311 310 309 308 308 308 308 309 309 308 309 307 305 305 305 305 305 305 305 304 304 304 304 305 304 305 304 305 305 306 305
319 318 317 315 315 316 316 314 313 312 311 310 309 309 308 308 307 308 309 309 308 308 307 307 306 306 306 305 305 305 305 306 304 304 304 303 303 303 303 306 304 305
319 318 316 316 316 315 315 313 312 311 312 311 310 309 308 309 309 309 309 308 309 309 308 307 307 307 306 306 305 305 305 305 305 303 303 304 304 304 305 304 304 305
318 317 316 317 317 316 315 314 313 312 312 311 311 309 309 308 309 309 308 308 309 308 308 308 308 308 307 307 307 305 305 305 304 304 303 303 303 304 304 304 303 304
316 316 315 315 316 316 315 314 313 313 313 312 311 310 309 309 308 308 308 308 310 309 308 307 307 307 307 307 307 306 305 304 304 303 303 303 304 304 311 304 304 303
316 316 316 315 315 315 315 314 314 313 313 312 312 311 308 309 309 308 309 308 308 308 308 308 308 307 306 307 307 306 306 305 305 304 304 304 304 305 307 304 304 304
316 317 316 315 315 315 315 315 314 314 313 313 312 312 311 310 310 310 309 309 309 308 308 308 309 308 306 306 307 306 306 305 305 306 307 305 305 306 307 306 305 305
317 317 318 317 315 315 315 315 314 313 313 313 312 311 311 312 311 310 309 309 309 309 309 308 308 308 306 306 307 308 307 305 306 307 308 309 308 308 308 307 307 306
317 317 317 316 316 316 314 314 314 314 314 313 312 310 312 312 312 311 310 309 308 309 309 309 310 311 310 308 308 307 307 308 308 309 308 309 309 309 309 309 308 307
314 315 315 315 315 314 313 312 314 315 315 314 312 311 310 311 310 310 310 311 310 310 309 310 311 311 312 308 309 311 310 311 310 310 310 310 310 309 308 308 308 308
315 314 314 315 314 313 313 314 315 314 313 312 310 309 310 310 309 310 309 310 310 310 310 310 312 312 306 302 301 304 311 311 311 311 310 311 311 311 311 311 309 309
315 315 315 314 313 312 311 312 312 313 314 313 312 310 308 308 308 307 308 307 308 308 309 310 311 310 302 301 300 300 305 313 312 311 311 310 311 311 311 310 311 310
314 313 312 312 312 312 311 311 311 311 311 312 311 309 308 309 307 307 307 307 308 308 307 308 308 304 298 298 299 299 300 308 312 312 311 310 310 310 310 310 309 309
304 305 305 307 309 310 310 310 309 308 308 307 307 308 308 306 306 307 306 307 307 308 307 307 307 303 296 296 297 297 297 302 311 311 311 311 311 311 310 310 309 309
299 300 299 299 300 300 301 302 304 305 308 306 305 305 305 305 305 306 305 304 306 308 308 308 310 304 296 294 294 294 294 294 308 308 308 309 309 310 310 311 310 310
298 297 297 297 297 297 297 298 299 299 301 303 303 303 303 304 303 303 302 304 307 306 305 308 309 299 295 294 294 294 293 300 307 309 308 309 308 309 309 310 309 309
297 296 296 296 296 296 295 296 296 296 297 299 299 300 300 301 302 302 303 303 304 305 305 307 307 302 295 295 294 293 295 302 306 307 307 308 309 308 309 308 308 308
296 296 295 295 295 295 295 294 295 295 295 297 296 296 297 298 299 299 301 302 302 305 304 304 306 304 298 296 295 293 296 305 306 306 307 307 308 307 306 306 307 309
296 296 295 295 294 294 295 294 294 295 295 294 295 295 295 295 297 297 297 298 299 301 306 305 304 305 300 296 295 294 296 302 306 306 306 306 306 307 306 305 305 306
296 296 295 295 294 294 294 294 294 294 294 294 294 294 294 294 295 295 295 295 296 297 298 299 300 302 302 298 295 295 294 300 306 305 306 307 306 306 307 306 303 301
Wind_Speed
7 6 7 6 5 6 6 6 4 5 4 5 6 4 6 4 3 4 4 4 4 4 4 3 3 3 3 3 3 3 3 4 4 4 5 6 4 5 4 3 2 4
6 7 6 6 5 4 5 6 5 6 5 4 5 4 3 4 2 4 5 5 4 4 3 3 3 4 3 3 3 5 4 4 4 2 6 6 4 5 5 4 4 3
5 6 7 7 7 5 5 4 5 5 6 5 4 4 4 3 4 3 4 5 5 4 4 4 4 3 3 3 3 4 4 4 5 3 5 4 3 6 3 4 4 3
4 6 7 6 6 6 4 5 3 4 4 5 4 4 4 3 4 4 4 4 5 4 3 3 4 3 3 3 3 4 3 3 2 2 5 3 3 4 3 3 3 3
6 5 5 6 6 6 6 6 6 5 5 4 3 3 4 4 4 4 4 4 4 4 3 3 3 4 4 3 3 4 3 3 2 2 5 4 3 3 2 3 5 5
3 4 5 7 7 7 7 7 7 6 4 4 4 3 3 4 4 4 4 4 3 4 4 3 3 3 3 3 3 3 2 3 2 3 5 4 4 3 3 4 5 5
2 2 5 5 5 6 7 5 5 7 5 4 3 3 4 4 4 4 4 4 4 4 4 4 4 3 1 3 3 2 2 2 2 3 5 2 4 4 3 4 4 4
7 4 0 2 4 4 5 6 6 6 4 4 4 3 3 4 4 3 3 3 4 3 3 3 3 2 2 2 3 2 1 2 2 3 3 2 3 4 3 3 4 5
6 4 2 3 4 4 3 4 6 6 4 5 4 4 3 5 5 4 4 4 3 3 3 2 2 2 1 2 2 2 1 0 0 2 3 3 3 2 2 2 5 5
3 3 3 5 6 6 6 5 5 5 4 4 4 4 5 4 5 5 4 4 4 3 3 3 2 1 1 1 2 3 2 1 1 1 1 2 3 3 2 3 4 4
4 4 5 5 5 4 6 5 5 6 5 5 4 4 4 4 3 4 5 4 5 4 3 3 3 3 2 1 1 2 3 2 1 1 2 2 3 3 4 4 3 4
7 6 4 3 2 4 6 6 6 6 6 4 5 6 4 4 4 2 3 4 4 4 4 4 3 4 4 4 3 2 2 2 1 1 2 2 2 2 1 1 2 1
8 9 6 4 4 3 1 1 4 5 5 6 5 5 5 4 4 4 3 4 4 4 4 4 4 4 4 4 3 3 4 3 2 1 1 2 3 2 1 0 0 1
9 5 7 6 4 3 1 1 2 3 4 4 4 4 5 5 5 4 4 3 4 4 4 3 3 3 3 4 4 4 4 4 4 3 2 1 2 1 1 2 1 2
9 8 7 7 5 4 2 1 1 1 1 2 3 4 4 4 4 4 4 3 3 4 4 4 4 5 4 4 4 4 4 4 4 4 4 3 2 1 1 1 2 2
5 5 3 7 8 6 3 3 4 4 3 3 3 4 4 4 4 4 5 6 5 4 4 4 5 4 6 9 8 6 6 5 4 4 5 4 5 4 3 3 3 3
5 4 5 5 7 5 5 4 4 4 4 3 2 2 1 1 4 4 4 4 5 5 5 6 6 5 9 10 11 10 6 5 6 6 4 5 5 6 6 5 4 4
5 5 5 5 5 4 3 3 3 4 4 3 4 4 2 2 3 3 3 4 4 4 5 6 6 7 11 11 12 12 9 7 6 6 5 6 6 6 6 5 6 5
7 8 7 7 5 5 5 5 6 6 6 6 6 3 3 4 2 3 3 1 3 4 3 1 1 1 5 9 11 12 13 9 6 6 7 7 6 6 6 6 5 5
9 10 9 8 7 7 7 6 6 5 4 3 2 3 4 4 4 3 3 2 1 1 1 1 2 3 5 5 5 6 7 5 4 5 6 6 6 7 6 6 6 7
10 10 9 8 8 9 9 9 8 6 5 3 3 3 3 3 2 2 2 3 2 1 1 2 4 3 5 7 6 6 4 2 3 2 3 4 5 5 6 7 7 7
10 9 9 8 8 9 10 9 8 7 7 5 3 3 2 2 3 2 2 4 4 3 3 5 4 5 6 7 8 9 6 4 4 5 5 5 5 5 6 6 5 5
9 9 9 9 8 10 9 8 7 8 7 5 6 6 6 6 5 4 3 3 3 3 3 4 5 5 6 8 8 7 4 4 5 5 6 6 7 6 6 5 5 5
9 9 9 8 9 9 7 5 5 4 6 5 6 6 7 6 5 6 6 6 5 6 4 4 6 5 6 9 8 7 6 5 5 5 6 6 7 5 5 5 6 9
8 8 8 8 8 7 7 7 7 6 4 4 6 5 5 4 6 6 6 7 7 5 7 6 5 7 7 8 8 7 5 5 5 5 5 7 6 7 6 6 6 6
7 8 8 8 7 6 6 6 5 6 7 6 5 5 5 6 6 7 7 7 6 7 7 6 7 7 6 9 9 9 8 5 4 4 7 9 8 7 7 7 7 7
Wind_Direction
134 134 135 132 140 145 147 140 141 131 136 138 136 158 144 161 127 102 103 102 112 115 119 115 108 92 75 70 73 77 76 93 87 104 105 108 109 121 121 129 128 139
132 128 124 118 116 131 145 144 152 143 151 150 145 141 145 128 128 116 119 116 112 121 128 128 117 117 106 91 78 86 73 83 85 63 100 91 102 96 97 105 113 108
128 122 126 132 140 149 151 154 147 150 146 156 142 139 148 139 125 104 114 126 126 131 137 133 115 109 102 84 74 89 102 100 97 72 88 97 104 96 102 103 92 112
137 139 134 134 140 146 152 137 130 123 122 133 155 158 145 148 128 115 105 115 124 128 131 115 119 99 91 78 78 68 72 75 84 101 92 71 56 100 100 103 99 83
145 130 124 132 143 150 157 156 152 145 153 152 133 138 133 130 121 110 108 110 121 125 111 110 101 108 101 81 82 85 64 81 49 79 91 74 21 57 55 68 77 69
92 123 135 148 156 161 168 169 160 142 136 144 168 154 148 135 128 124 125 123 115 116 109 99 103 94 99 104 84 82 84 83 47 80 84 84 60 37 59 66 78 74
68 111 151 159 156 171 169 167 144 133 158 162 127 158 145 129 128 130 135 138 133 137 135 133 128 122 86 104 96 81 46 55 47 69 90 63 80 56 45 74 76 78
143 123 99 149 159 182 167 149 136 140 149 138 165 171 152 134 129 127 127 130 130 132 131 132 133 125 92 88 97 85 47 33 59 72 81 77 76 76 53 69 82 73
147 138 130 157 150 165 138 135 145 142 148 162 167 166 168 149 148 141 137 130 118 124 133 138 138 125 84 102 106 120 125 58 52 113 126 129 112 110 88 88 79 82
134 110 156 167 166 168 155 156 155 144 147 167 170 168 165 166 154 147 139 136 132 130 153 160 131 108 95 121 156 148 154 173 165 174 162 169 166 160 146 115 129 101
126 144 162 182 180 177 153 155 153 149 162 173 166 182 177 161 172 150 140 136 143 151 158 170 166 148 157 183 185 168 163 168 190 224 219 211 208 189 171 152 148 140
134 120 136 130 132 164 161 162 166 166 173 182 177 174 181 170 165 165 146 151 153 163 171 180 162 162 172 185 173 163 162 164 162 220 254 254 251 248 203 134 124 136
148 146 128 70 55 24 4 191 181 174 174 184 187 173 170 177 179 172 175 162 183 168 175 178 181 173 175 177 171 168 163 154 151 198 232 258 271 281 288 102 116 137
132 137 126 128 108 82 78 251 249 213 199 188 166 177 177 178 178 188 189 172 187 192 191 176 188 195 185 190 190 179 154 163 176 176 177 209 244 266 287 277 231 182
151 143 140 128 126 129 90 52 106 90 91 116 171 186 191 188 186 177 165 191 216 218 205 182 190 211 202 186 192 201 166 173 184 182 175 180 191 218 246 263 268 225
87 97 118 135 132 141 133 141 152 173 152 127 148 184 193 190 183 177 181 185 196 218 219 201 212 219 221 208 198 190 185 188 185 194 191 184 182 192 224 243 239 241
87 98 119 116 124 135 152 143 115 101 87 86 88 95 119 172 159 171 185 182 185 190 204 211 216 218 219 215 218 212 187 185 190 201 203 198 190 186 199 214 233 229
83 76 54 57 63 54 37 48 85 84 86 92 99 86 62 82 91 134 141 147 152 174 199 210 213 218 205 210 214 213 202 193 194 195 199 208 208 205 206 203 215 224
65 68 68 52 41 64 67 58 59 56 37 31 19 10 60 63 43 53 55 68 128 150 188 221 267 285 225 225 217 209 204 195 195 197 195 208 212 214 209 208 214 221
68 72 66 61 54 51 57 54 54 52 61 48 41 21 40 34 13 27 18 29 23 6 312 249 218 196 196 230 249 243 230 217 211 201 209 210 213 214 216 215 212 209
59 61 62 60 57 57 57 51 48 42 42 20 38 41 55 63 66 28 325 321 317 303 272 280 281 244 207 212 227 238 243 248 265 266 241 245 244 241 235 231 224 219
53 54 53 51 54 58 57 50 46 44 36 13 32 32 48 66 35 37 344 321 316 341 329 297 289 265 234 224 222 224 202 205 229 237 237 237 241 235 238 240 241 226
47 52 50 48 47 51 49 45 39 28 30 21 42 31 33 25 16 358 337 336 334 334 317 297 297 292 265 257 244 223 185 225 227 233 236 239 240 236 235 239 235 226
41 45 47 45 45 45 43 43 44 45 34 17 40 31 31 13 1 15 12 6 356 337 329 305 298 288 261 258 259 248 228 228 225 226 244 243 253 253 248 247 243 235
46 46 45 42 45 39 37 34 31 33 23 28 36 38 37 16 23 34 28 24 12 356 342 338 315 316 310 273 266 253 236 256 239 221 245 252 249 257 252 248 259 253
42 46 48 47 44 42 37 39 28 33 27 33 32 37 36 33 31 30 30 18 10 9 5 357 346 336 324 296 265 255 233 241 276 249 235 243 241 239 256 259 253 257